| time (UTC) | temp C | wind direction | speed KPH | gust KPH | rain 1hr cm | rain 24hr cm | rain mn cm | humidity % | barometer mb |
| 20260906154556 | 29 | 109 | 8.0 | 12.9 | 0.00 | 0.00 | 0.00 | 76 | 1012.5 |
| 20260906153037 | 28 | 101 | 8.0 | 14.5 | 0.00 | 0.00 | 0.00 | 76 | 1012.6 |
| 20260906151514 | 28 | 141 | 8.0 | 17.7 | 0.00 | 0.00 | 0.00 | 77 | 1012.5 |
| 20260906150056 | 28 | 86 | 8.0 | 12.9 | 0.00 | 0.00 | 0.00 | 78 | 1012.5 |
| 20260906144540 | 27 | 96 | 9.7 | 14.5 | 0.00 | 0.00 | 0.00 | 78 | 1012.3 |
| 20260906143017 | 27 | 108 | 4.8 | 12.9 | 0.00 | 0.00 | 0.00 | 79 | 1012.1 |
| 20260906141605 | 27 | 119 | 8.0 | 12.9 | 0.00 | 0.00 | 0.00 | 79 | 1012.1 |
| 20260906140046 | 27 | 134 | 3.2 | 9.7 | 0.00 | 0.00 | 0.00 | 80 | 1012.0 |
| 20260906134526 | 27 | 105 | 1.6 | 9.7 | 0.00 | 0.00 | 0.00 | 82 | 1012.1 |
| 20260906133006 | 26 | 97 | 8.0 | 14.5 | 0.00 | 0.00 | 0.00 | 82 | 1011.9 |
| 20260906131556 | 26 | 79 | 8.0 | 16.1 | 0.00 | 0.00 | 0.00 | 84 | 1011.8 |
| 20260906130041 | 25 | 106 | 6.4 | 12.9 | 0.00 | 0.00 | 0.00 | 87 | 1011.7 |
| 20260906124516 | 25 | 58 | 4.8 | 14.5 | 0.00 | 0.00 | 0.00 | 89 | 1011.8 |
| 20260906123059 | 25 | 90 | 8.0 | 14.5 | 0.00 | 0.00 | 0.00 | 89 | 1011.7 |
| 20260906121543 | 25 | 109 | 6.4 | 12.9 | 0.00 | 0.00 | 0.00 | 90 | 1011.5 |
| 20260906120051 | 25 | 96 | 6.4 | 11.3 | 0.00 | 0.00 | 0.00 | 91 | 1011.5 |
| 20260906114535 | 24 | 124 | 4.8 | 9.7 | 0.00 | 0.00 | 0.00 | 91 | 1011.3 |
| 20260906113013 | 24 | 82 | 1.6 | 6.4 | 0.00 | 0.00 | 0.00 | 90 | 1011.2 |
| 20260906111558 | 24 | 66 | 0.0 | 4.8 | 0.00 | 0.00 | 0.00 | 90 | 1011.2 |
| 20260906110039 | 24 | 45 | 0.0 | 6.4 | 0.00 | 0.00 | 0.00 | 89 | 1011.1 |
| 20260906104521 | 24 | 42 | 0.0 | 3.2 | 0.00 | 0.00 | 0.00 | 88 | 1011.0 |
| 20260906103003 | 24 | 41 | 0.0 | 3.2 | 0.00 | 0.00 | 0.00 | 88 | 1010.9 |
| 20260906101556 | 25 | 39 | 0.0 | 6.4 | 0.00 | 0.00 | 0.00 | 87 | 1010.8 |
| 20260906100041 | 24 | 31 | 3.2 | 6.4 | 0.00 | 0.00 | 0.00 | 89 | 1010.8 |
| 20260906094533 | 22 | 352 | 1.6 | 3.2 | 0.00 | 0.00 | 0.00 | 91 | 1010.6 |
| 20260906093014 | 23 | 149 | 0.0 | 0.0 | 0.00 | 0.00 | 0.00 | 92 | 1010.3 |
| 20260906091559 | 23 | 255 | 0.0 | 3.2 | 0.00 | 0.00 | 0.00 | 93 | 1010.2 |
| 20260906090042 | 22 | 204 | 0.0 | 0.0 | 0.00 | 0.00 | 0.00 | 92 | 1010.1 |
| 20260906084529 | 23 | 204 | 0.0 | 0.0 | 0.00 | 0.00 | 0.00 | 91 | 1010.0 |
| 20260906083022 | 23 | 204 | 0.0 | 0.0 | 0.00 | 0.00 | 0.00 | 91 | 1010.1 |
| 20260906081504 | 23 | 204 | 0.0 | 0.0 | 0.00 | 0.00 | 0.00 | 90 | 1010.0 |
| 20260906080049 | 23 | 204 | 0.0 | 0.0 | 0.00 | 0.00 | 0.00 | 90 | 1009.9 |
| 20260906074537 | 23 | 204 | 0.0 | 0.0 | 0.00 | 0.00 | 0.00 | 88 | 1010.1 |
| 20260906073020 | 24 | 204 | 0.0 | 0.0 | 0.00 | 0.00 | 0.00 | 86 | 1010.1 |
| 20260906071506 | 25 | 204 | 0.0 | 0.0 | 0.00 | 0.00 | 0.00 | 84 | 1010.1 |
| 20260906070054 | 25 | 204 | 0.0 | 0.0 | 0.00 | 0.00 | 0.00 | 82 | 1010.1 |
| 20260906064542 | 26 | 124 | 0.0 | 0.0 | 0.00 | 0.00 | 0.00 | 80 | 1010.3 |
| 20260906063025 | 26 | 124 | 0.0 | 0.0 | 0.00 | 0.00 | 0.00 | 79 | 1010.3 |
| 20260906061510 | 26 | 145 | 0.0 | 1.6 | 0.00 | 0.00 | 0.00 | 78 | 1010.3 |
| 20260906060057 | 26 | 143 | 0.0 | 1.6 | 0.00 | 0.00 | 0.00 | 80 | 1010.3 |
| 20260906054546 | 25 | 177 | 0.0 | 4.8 | 0.00 | 0.00 | 0.00 | 84 | 1010.3 |
| 20260906053035 | 24 | 249 | 0.0 | 0.0 | 0.00 | 0.00 | 0.00 | 86 | 1010.3 |
| 20260906051515 | 25 | 249 | 0.0 | 0.0 | 0.00 | 0.00 | 0.00 | 85 | 1010.2 |
| 20260906050131 | 25 | 249 | 0.0 | 1.6 | 0.00 | 0.00 | 0.00 | 85 | 1010.3 |
| 20260906044553 | 25 | 281 | 0.0 | 0.0 | 0.00 | 0.00 | 0.00 | 85 | 1010.3 |
| 20260906043031 | 25 | 281 | 0.0 | 0.0 | 0.00 | 0.00 | 0.00 | 84 | 1010.3 |
| 20260906041516 | 25 | 281 | 0.0 | 0.0 | 0.00 | 0.00 | 0.00 | 81 | 1010.2 |
| 20260906040059 | 26 | 281 | 0.0 | 1.6 | 0.00 | 0.00 | 0.00 | 81 | 1010.2 |
| 20260906034542 | 26 | 55 | 0.0 | 0.0 | 0.00 | 0.00 | 0.00 | 78 | 1009.9 |
| 20260906033025 | 27 | 55 | 0.0 | 0.0 | 0.00 | 0.00 | 0.00 | 75 | 1009.9 |
| 20260906031602 | 27 | 54 | 0.0 | 0.0 | 0.00 | 0.00 | 0.00 | 72 | 1009.9 |
| 20260906030044 | 28 | 56 | 0.0 | 3.2 | 0.00 | 0.00 | 0.00 | 70 | 1009.7 |
| 20260906024524 | 28 | 98 | 0.0 | 1.6 | 0.00 | 0.00 | 0.00 | 68 | 1009.6 |
| 20260906023008 | 29 | 59 | 0.0 | 6.4 | 0.00 | 0.00 | 0.00 | 67 | 1009.3 |
| 20260906021608 | 30 | 117 | 3.2 | 8.0 | 0.00 | 0.00 | 0.00 | 64 | 1009.3 |
| 20260906020032 | 30 | 52 | 1.6 | 8.0 | 0.00 | 0.00 | 0.00 | 62 | 1008.9 |
| 20260906014512 | 30 | 44 | 3.2 | 8.0 | 0.00 | 0.00 | 0.00 | 61 | 1008.8 |
| 20260906013057 | 30 | 39 | 1.6 | 6.4 | 0.00 | 0.00 | 0.00 | 61 | 1008.6 |
| 20260906011539 | 30 | 56 | 3.2 | 9.7 | 0.00 | 0.00 | 0.00 | 61 | 1008.5 |
| 20260906010020 | 28 | 18 | 0.0 | 6.4 | 0.00 | 0.00 | 0.00 | 71 | 1008.4 |
| 20260906004503 | 29 | 44 | 0.0 | 0.0 | 0.00 | 0.00 | 0.00 | 68 | 1008.2 |
| 20260906003057 | 30 | 44 | 0.0 | 0.0 | 0.00 | 0.00 | 0.00 | 63 | 1008.2 |
| 20260906001527 | 32 | 44 | 0.0 | 0.0 | 0.00 | 0.00 | 0.00 | 59 | 1008.3 |
| 20260906000012 | 32 | 44 | 0.0 | 0.0 | 0.00 | 0.00 | 0.00 | 60 | 1008.4 |
| 20260905234613 | 33 | 44 | 0.0 | 1.6 | 0.00 | 0.00 | 0.00 | 57 | 1008.3 |
| 20260905233040 | 33 | 44 | 0.0 | 3.2 | 0.00 | 0.00 | 0.00 | 55 | 1008.5 |
| 20260905231522 | 34 | 46 | 0.0 | 3.2 | 0.00 | 0.00 | 0.00 | 50 | 1008.4 |
| 20260905230005 | 35 | 44 | 1.6 | 8.0 | 0.00 | 0.00 | 0.00 | 47 | 1008.2 |
| 20260905224547 | 36 | 58 | 4.8 | 6.4 | 0.00 | 0.00 | 0.00 | 45 | 1008.3 |
| 20260905223034 | 36 | 37 | 6.4 | 12.9 | 0.00 | 0.00 | 0.00 | 43 | 1008.4 |
| 20260905221515 | 36 | 34 | 1.6 | 8.0 | 0.00 | 0.00 | 0.00 | 43 | 1008.4 |
| 20260905214543 | 36 | 38 | 3.2 | 6.4 | 0.00 | 0.00 | 0.00 | 44 | 1008.4 |
| 20260905213023 | 36 | 23 | 3.2 | 9.7 | 0.00 | 0.00 | 0.00 | 41 | 1008.3 |
| 20260905211506 | 36 | 21 | 1.6 | 14.5 | 0.00 | 0.00 | 0.00 | 43 | 1008.4 |
| 20260905210050 | 36 | 54 | 3.2 | 14.5 | 0.00 | 0.00 | 0.00 | 44 | 1008.5 |
| 20260905204533 | 36 | 18 | 4.8 | 12.9 | 0.00 | 0.00 | 0.00 | 42 | 1008.8 |
| 20260905203017 | 36 | 70 | 12.9 | 20.9 | 0.00 | 0.00 | 0.00 | 43 | 1009.0 |
| 20260905201607 | 36 | 27 | 4.8 | 19.3 | 0.00 | 0.00 | 0.00 | 44 | 1009.2 |
| 20260905200046 | 37 | 328 | 1.6 | 12.9 | 0.00 | 0.00 | 0.00 | 42 | 1009.3 |
| 20260905194525 | 37 | 29 | 4.8 | 8.0 | 0.00 | 0.00 | 0.00 | 38 | 1009.5 |
| 20260905193013 | 36 | 40 | 1.6 | 11.3 | 0.00 | 0.00 | 0.00 | 40 | 1009.6 |
| 20260905191600 | 37 | 354 | 3.2 | 12.9 | 0.00 | 0.00 | 0.00 | 39 | 1009.8 |
| 20260905190035 | 36 | 285 | 1.6 | 9.7 | 0.00 | 0.00 | 0.00 | 39 | 1009.9 |
| 20260905184521 | 36 | 288 | 3.2 | 6.4 | 0.00 | 0.00 | 0.00 | 40 | 1010.2 |
| 20260905183102 | 35 | 10 | 3.2 | 9.7 | 0.00 | 0.00 | 0.00 | 45 | 1010.3 |
| 20260905181546 | 35 | 20 | 8.0 | 14.5 | 0.00 | 0.00 | 0.00 | 44 | 1010.5 |
| 20260905180027 | 36 | 56 | 4.8 | 8.0 | 0.00 | 0.00 | 0.00 | 46 | 1010.6 |
| 20260905174525 | 36 | 289 | 3.2 | 8.0 | 0.00 | 0.00 | 0.00 | 44 | 1010.7 |
| 20260905173108 | 36 | 257 | 1.6 | 8.0 | 0.00 | 0.00 | 0.00 | 47 | 1010.7 |
| 20260905171539 | 36 | 335 | 0.0 | 9.7 | 0.00 | 0.00 | 0.00 | 48 | 1011.0 |
| 20260905170016 | 35 | 314 | 0.0 | 6.4 | 0.00 | 0.00 | 0.00 | 49 | 1011.3 |
| 20260905164600 | 35 | 27 | 1.6 | 9.7 | 0.00 | 0.00 | 0.00 | 51 | 1011.4 |
| 20260905163051 | 35 | 311 | 1.6 | 11.3 | 0.00 | 0.00 | 0.00 | 53 | 1011.5 |
| 20260905161524 | 35 | 326 | 1.6 | 8.0 | 0.00 | 0.00 | 0.00 | 54 | 1011.5 |
| 20260905160008 | 33 | 267 | 1.6 | 4.8 | 0.00 | 0.00 | 0.00 | 54 | 1011.5 |